#datetime,building,power
2022-03-05T00:00:00,pth,4.80
2022-03-05T00:02:00,pth,4.80
2022-03-05T00:04:00,pth,3.60
2022-03-05T00:05:00,pth,2.40
2022-03-05T00:07:00,pth,4.80
2022-03-05T00:09:00,pth,4.80
2022-03-05T00:11:00,pth,4.80
2022-03-05T00:13:00,pth,4.80
2022-03-05T00:15:00,pth,4.80
2022-03-05T00:17:00,pth,3.60
2022-03-05T00:19:00,pth,4.80
2022-03-05T00:21:00,pth,4.80
2022-03-05T00:23:00,pth,4.80
2022-03-05T00:25:00,pth,4.80
2022-03-05T00:26:00,pth,2.40
2022-03-05T00:28:00,pth,4.80
2022-03-05T00:30:00,pth,4.80
2022-03-05T00:32:00,pth,4.80
2022-03-05T00:34:00,pth,4.80
2022-03-05T00:36:00,pth,4.80
2022-03-05T00:38:00,pth,4.80
2022-03-05T00:40:00,pth,4.80
2022-03-05T00:42:00,pth,4.80
2022-03-05T00:44:00,pth,3.60
2022-03-05T00:46:00,pth,4.80
2022-03-05T00:48:00,pth,4.80
2022-03-05T00:49:00,pth,2.40
2022-03-05T00:51:00,pth,3.60
2022-03-05T00:52:00,pth,2.40
2022-03-05T00:54:00,pth,4.80
2022-03-05T00:56:00,pth,4.80
2022-03-05T00:58:00,pth,3.60
2022-03-05T01:00:00,pth,4.80
2022-03-05T01:01:00,pth,2.40
2022-03-05T01:03:00,pth,4.80
2022-03-05T01:04:00,pth,1.20
2022-03-05T01:06:00,pth,4.80
2022-03-05T01:08:00,pth,4.80
2022-03-05T01:10:00,pth,4.80
2022-03-05T01:12:00,pth,4.80
2022-03-05T01:15:00,pth,7.20
2022-03-05T01:17:00,pth,4.80
2022-03-05T01:19:00,pth,3.60
2022-03-05T01:20:00,pth,2.40
2022-03-05T01:21:00,pth,2.40
2022-03-05T01:23:00,pth,4.80
2022-03-05T01:24:00,pth,2.40
2022-03-05T01:26:00,pth,4.80
2022-03-05T01:27:00,pth,2.40
2022-03-05T01:29:00,pth,4.80
2022-03-05T01:31:00,pth,3.60
2022-03-05T01:33:00,pth,4.80
2022-03-05T01:34:00,pth,2.40
2022-03-05T01:36:00,pth,4.80
2022-03-05T01:37:00,pth,2.40
2022-03-05T01:39:00,pth,3.60
2022-03-05T01:41:00,pth,4.80
2022-03-05T01:43:00,pth,4.80
2022-03-05T01:45:00,pth,3.60
2022-03-05T01:46:00,pth,2.40
2022-03-05T01:48:00,pth,4.80
2022-03-05T01:49:00,pth,2.40
2022-03-05T01:51:00,pth,3.60
2022-03-05T01:53:00,pth,4.80
2022-03-05T01:55:00,pth,3.60
2022-03-05T01:57:00,pth,4.80
2022-03-05T01:59:00,pth,3.60
2022-03-05T02:00:00,pth,2.40
2022-03-05T02:01:00,pth,2.40
2022-03-05T02:03:00,pth,4.80
2022-03-05T02:04:00,pth,1.20
2022-03-05T02:06:00,pth,4.80
2022-03-05T02:08:00,pth,3.60
2022-03-05T02:10:00,pth,4.80
2022-03-05T02:11:00,pth,2.40
2022-03-05T02:12:00,pth,1.20
2022-03-05T02:14:00,pth,4.80
2022-03-05T02:15:00,pth,2.40
2022-03-05T02:17:00,pth,3.60
2022-03-05T02:19:00,pth,4.80
2022-03-05T02:21:00,pth,3.60
2022-03-05T02:22:00,pth,2.40
2022-03-05T02:24:00,pth,3.60
2022-03-05T02:25:00,pth,2.40
2022-03-05T02:27:00,pth,4.80
2022-03-05T02:29:00,pth,3.60
2022-03-05T02:31:00,pth,4.80
2022-03-05T02:33:00,pth,3.60
2022-03-05T02:35:00,pth,4.80
2022-03-05T02:36:00,pth,1.20
2022-03-05T02:38:00,pth,4.80
2022-03-05T02:40:00,pth,3.60
2022-03-05T02:42:00,pth,4.80
2022-03-05T02:44:00,pth,3.60
2022-03-05T02:46:00,pth,4.80
2022-03-05T02:48:00,pth,4.80
2022-03-05T02:49:00,pth,2.40
2022-03-05T02:51:00,pth,3.60
2022-03-05T02:53:00,pth,4.80
2022-03-05T02:55:00,pth,4.80
2022-03-05T02:56:00,pth,1.20
2022-03-05T02:58:00,pth,4.80
2022-03-05T03:00:00,pth,3.60
2022-03-05T03:02:00,pth,4.80
2022-03-05T03:03:00,pth,2.40
2022-03-05T03:04:00,pth,2.40
2022-03-05T03:06:00,pth,3.60
2022-03-05T03:08:00,pth,3.60
2022-03-05T03:10:00,pth,4.80
2022-03-05T03:12:00,pth,3.60
2022-03-05T03:14:00,pth,4.80
2022-03-05T03:15:00,pth,1.20
2022-03-05T03:16:00,pth,2.40
2022-03-05T03:18:00,pth,4.80
2022-03-05T03:19:00,pth,2.40
2022-03-05T03:21:00,pth,3.60
2022-03-05T03:23:00,pth,4.80
2022-03-05T03:24:00,pth,2.40
2022-03-05T03:25:00,pth,2.40
2022-03-05T03:26:00,pth,1.20
2022-03-05T03:28:00,pth,4.80
2022-03-05T03:30:00,pth,3.60
2022-03-05T03:31:00,pth,2.40
2022-03-05T03:33:00,pth,4.80
2022-03-05T03:35:00,pth,3.60
2022-03-05T03:36:00,pth,2.40
2022-03-05T03:37:00,pth,2.40
2022-03-05T03:39:00,pth,3.60
2022-03-05T03:40:00,pth,2.40
2022-03-05T03:42:00,pth,3.60
2022-03-05T03:44:00,pth,4.80
2022-03-05T03:46:00,pth,4.80
2022-03-05T03:48:00,pth,3.60
2022-03-05T03:49:00,pth,2.40
2022-03-05T03:51:00,pth,4.80
2022-03-05T03:53:00,pth,3.60
2022-03-05T03:55:00,pth,4.80
2022-03-05T03:57:00,pth,4.80
2022-03-05T03:58:00,pth,2.40
2022-03-05T04:00:00,pth,3.60
2022-03-05T04:02:00,pth,4.80
2022-03-05T04:04:00,pth,3.60
2022-03-05T04:05:00,pth,2.40
2022-03-05T04:08:00,pth,4.80
2022-03-05T04:09:00,pth,3.60
2022-03-05T04:10:00,pth,2.40
2022-03-05T04:12:00,pth,4.80
2022-03-05T04:14:00,pth,3.60
2022-03-05T04:16:00,pth,4.80
2022-03-05T04:18:00,pth,3.60
2022-03-05T04:19:00,pth,2.40
2022-03-05T04:21:00,pth,4.80
2022-03-05T04:23:00,pth,3.60
2022-03-05T04:24:00,pth,2.40
2022-03-05T04:26:00,pth,4.80
2022-03-05T04:28:00,pth,4.80
2022-03-05T04:30:00,pth,3.60
2022-03-05T04:31:00,pth,2.40
2022-03-05T04:33:00,pth,4.80
2022-03-05T04:34:00,pth,2.40
2022-03-05T04:36:00,pth,4.80
2022-03-05T04:37:00,pth,2.40
2022-03-05T04:39:00,pth,3.60
2022-03-05T04:41:00,pth,4.80
2022-03-05T04:43:00,pth,3.60
2022-03-05T04:45:00,pth,4.80
2022-03-05T04:46:00,pth,2.40
2022-03-05T04:48:00,pth,3.60
2022-03-05T04:50:00,pth,3.60
2022-03-05T04:51:00,pth,2.40
2022-03-05T04:53:00,pth,3.60
2022-03-05T04:55:00,pth,4.80
2022-03-05T04:57:00,pth,3.60
2022-03-05T04:59:00,pth,4.80
2022-03-05T05:01:00,pth,4.80
2022-03-05T05:03:00,pth,4.80
2022-03-05T05:04:00,pth,1.20
2022-03-05T05:06:00,pth,4.80
2022-03-05T05:07:00,pth,2.40
2022-03-05T05:09:00,pth,3.60
2022-03-05T05:11:00,pth,4.80
2022-03-05T05:13:00,pth,3.60
2022-03-05T05:14:00,pth,2.40
2022-03-05T05:16:00,pth,4.80
2022-03-05T05:18:00,pth,3.60
2022-03-05T05:19:00,pth,2.40
2022-03-05T05:21:00,pth,3.60
2022-03-05T05:23:00,pth,4.80
2022-03-05T05:25:00,pth,3.60
2022-03-05T05:27:00,pth,4.80
2022-03-05T05:29:00,pth,3.60
2022-03-05T05:31:00,pth,4.80
2022-03-05T05:32:00,pth,2.40
2022-03-05T05:34:00,pth,3.60
2022-03-05T05:36:00,pth,4.80
2022-03-05T05:38:00,pth,3.60
2022-03-05T05:40:00,pth,4.80
2022-03-05T05:42:00,pth,4.80
2022-03-05T05:43:00,pth,1.20
2022-03-05T05:45:00,pth,4.80
2022-03-05T05:46:00,pth,1.20
2022-03-05T05:48:00,pth,4.80
2022-03-05T05:50:00,pth,3.60
2022-03-05T05:51:00,pth,2.40
2022-03-05T05:53:00,pth,4.80
2022-03-05T05:55:00,pth,3.60
2022-03-05T05:57:00,pth,3.60
2022-03-05T05:58:00,pth,2.40
2022-03-05T06:00:00,pth,4.80
2022-03-05T06:02:00,pth,3.60
2022-03-05T06:04:00,pth,4.80
2022-03-05T06:06:00,pth,4.80
2022-03-05T06:08:00,pth,4.80
2022-03-05T06:09:00,pth,1.20
2022-03-05T06:11:00,pth,4.80
2022-03-05T06:13:00,pth,4.80
2022-03-05T06:15:00,pth,4.80
2022-03-05T06:17:00,pth,3.60
2022-03-05T06:19:00,pth,4.80
2022-03-05T06:20:00,pth,2.40
2022-03-05T06:22:00,pth,3.60
2022-03-05T06:24:00,pth,4.80
2022-03-05T06:25:00,pth,1.20
2022-03-05T06:27:00,pth,4.80
2022-03-05T06:29:00,pth,3.60
2022-03-05T06:31:00,pth,3.60
2022-03-05T06:33:00,pth,3.60
2022-03-05T06:35:00,pth,3.60
2022-03-05T06:36:00,pth,1.20
2022-03-05T06:38:00,pth,4.80
2022-03-05T06:40:00,pth,3.60
2022-03-05T06:41:00,pth,1.20
2022-03-05T06:43:00,pth,4.80
2022-03-05T06:45:00,pth,3.60
2022-03-05T06:47:00,pth,3.60
2022-03-05T06:48:00,pth,2.40
2022-03-05T06:50:00,pth,3.60
2022-03-05T06:52:00,pth,3.60
2022-03-05T06:53:00,pth,1.20
2022-03-05T06:55:00,pth,3.60
2022-03-05T06:56:00,pth,2.40
2022-03-05T06:57:00,pth,1.20
2022-03-05T06:58:00,pth,2.40
2022-03-05T07:00:00,pth,3.60
2022-03-05T07:02:00,pth,3.60
2022-03-05T07:04:00,pth,3.60
2022-03-05T07:06:00,pth,3.60
2022-03-05T07:08:00,pth,3.60
2022-03-05T07:09:00,pth,1.20
2022-03-05T07:11:00,pth,3.60
2022-03-05T07:13:00,pth,4.80
2022-03-05T07:14:00,pth,1.20
2022-03-05T07:15:00,pth,2.40
2022-03-05T07:17:00,pth,3.60
2022-03-05T07:19:00,pth,3.60
2022-03-05T07:21:00,pth,3.60
2022-03-05T07:23:00,pth,3.60
2022-03-05T07:25:00,pth,3.60
2022-03-05T07:27:00,pth,3.60
2022-03-05T07:29:00,pth,3.60
2022-03-05T07:31:00,pth,3.60
2022-03-05T07:32:00,pth,1.20
2022-03-05T07:34:00,pth,3.60
2022-03-05T07:36:00,pth,3.60
2022-03-05T07:37:00,pth,2.40
2022-03-05T07:39:00,pth,3.60
2022-03-05T07:41:00,pth,4.80
2022-03-05T07:43:00,pth,3.60
2022-03-05T07:44:00,pth,2.40
2022-03-05T07:46:00,pth,4.80
2022-03-05T07:48:00,pth,4.80
2022-03-05T07:50:00,pth,3.60
2022-03-05T07:51:00,pth,2.40
2022-03-05T07:53:00,pth,3.60
2022-03-05T07:54:00,pth,2.40
2022-03-05T07:56:00,pth,4.80
2022-03-05T07:57:00,pth,1.20
2022-03-05T07:59:00,pth,3.60
2022-03-05T08:00:00,pth,2.40
2022-03-05T08:02:00,pth,3.60
2022-03-05T08:03:00,pth,1.20
2022-03-05T08:05:00,pth,3.60
2022-03-05T08:07:00,pth,3.60
2022-03-05T08:09:00,pth,3.60
2022-03-05T08:11:00,pth,4.80
2022-03-05T08:13:00,pth,4.80
2022-03-05T08:14:00,pth,2.40
2022-03-05T08:15:00,pth,2.40
2022-03-05T08:17:00,pth,4.80
2022-03-05T08:18:00,pth,2.40
2022-03-05T08:20:00,pth,4.80
2022-03-05T08:21:00,pth,2.40
2022-03-05T08:23:00,pth,3.60
2022-03-05T08:25:00,pth,3.60
2022-03-05T08:27:00,pth,3.60
2022-03-05T08:28:00,pth,2.40
2022-03-05T08:30:00,pth,3.60
2022-03-05T08:32:00,pth,4.80
2022-03-05T08:34:00,pth,4.80
2022-03-05T08:35:00,pth,2.40
2022-03-05T08:37:00,pth,3.60
2022-03-05T08:39:00,pth,3.60
2022-03-05T08:40:00,pth,2.40
2022-03-05T08:42:00,pth,3.60
2022-03-05T08:44:00,pth,3.60
2022-03-05T08:45:00,pth,2.40
2022-03-05T08:47:00,pth,3.60
2022-03-05T08:49:00,pth,4.80
2022-03-05T08:51:00,pth,3.60
2022-03-05T08:53:00,pth,4.80
2022-03-05T08:55:00,pth,3.60
2022-03-05T08:57:00,pth,3.60
2022-03-05T08:58:00,pth,2.40
2022-03-05T09:00:00,pth,3.60
2022-03-05T09:02:00,pth,3.60
2022-03-05T09:04:00,pth,4.80
2022-03-05T09:06:00,pth,3.60
2022-03-05T09:08:00,pth,3.60
2022-03-05T09:10:00,pth,3.60
2022-03-05T09:12:00,pth,3.60
2022-03-05T09:14:00,pth,3.60
2022-03-05T09:15:00,pth,2.40
2022-03-05T09:17:00,pth,3.60
2022-03-05T09:19:00,pth,3.60
2022-03-05T09:21:00,pth,4.80
2022-03-05T09:23:00,pth,4.80
2022-03-05T09:24:00,pth,2.40
2022-03-05T09:26:00,pth,3.60
2022-03-05T09:28:00,pth,4.80
2022-03-05T09:30:00,pth,3.60
2022-03-05T09:32:00,pth,4.80
2022-03-05T09:34:00,pth,3.60
2022-03-05T09:36:00,pth,3.60
2022-03-05T09:38:00,pth,4.80
2022-03-05T09:40:00,pth,7.20
2022-03-05T09:42:00,pth,4.80
2022-03-05T09:44:00,pth,4.80
2022-03-05T09:46:00,pth,4.80
2022-03-05T09:48:00,pth,7.20
2022-03-05T09:50:00,pth,7.20
2022-03-05T09:51:00,pth,2.40
2022-03-05T09:53:00,pth,3.60
2022-03-05T09:55:00,pth,4.80
2022-03-05T09:57:00,pth,3.60
2022-03-05T09:58:00,pth,2.40
2022-03-05T09:59:00,pth,2.40
2022-03-05T10:01:00,pth,4.80
2022-03-05T10:03:00,pth,3.60
2022-03-05T10:05:00,pth,8.40
2022-03-05T10:06:00,pth,6.00
2022-03-05T10:07:00,pth,4.80
2022-03-05T10:09:00,pth,4.80
2022-03-05T10:10:00,pth,2.40
2022-03-05T10:12:00,pth,7.20
2022-03-05T10:14:00,pth,10.80
2022-03-05T10:16:00,pth,6.00
2022-03-05T10:17:00,pth,2.40
2022-03-05T10:19:00,pth,9.60
2022-03-05T10:21:00,pth,6.00
2022-03-05T10:23:00,pth,7.20
2022-03-05T10:25:00,pth,8.40
2022-03-05T10:26:00,pth,4.80
2022-03-05T10:28:00,pth,7.20
2022-03-05T10:30:00,pth,6.00
2022-03-05T10:31:00,pth,2.40
2022-03-05T10:32:00,pth,2.40
2022-03-05T10:34:00,pth,4.80
2022-03-05T10:36:00,pth,3.60
2022-03-05T10:38:00,pth,4.80
2022-03-05T10:39:00,pth,1.20
2022-03-05T10:40:00,pth,2.40
2022-03-05T10:42:00,pth,3.60
2022-03-05T10:44:00,pth,4.80
2022-03-05T10:45:00,pth,2.40
2022-03-05T10:46:00,pth,1.20
2022-03-05T10:48:00,pth,3.60
2022-03-05T10:49:00,pth,2.40
2022-03-05T10:51:00,pth,2.40
2022-03-05T10:53:00,pth,3.60
2022-03-05T10:54:00,pth,2.40
2022-03-05T10:56:00,pth,3.60
2022-03-05T10:58:00,pth,3.60
2022-03-05T11:00:00,pth,4.80
2022-03-05T11:02:00,pth,4.80
2022-03-05T11:04:00,pth,3.60
2022-03-05T11:05:00,pth,2.40
2022-03-05T11:07:00,pth,4.80
2022-03-05T11:08:00,pth,2.40
2022-03-05T11:10:00,pth,3.60
2022-03-05T11:12:00,pth,4.80
2022-03-05T11:13:00,pth,2.40
2022-03-05T11:15:00,pth,4.80
2022-03-05T11:17:00,pth,6.00
2022-03-05T11:19:00,pth,4.80
2022-03-05T11:20:00,pth,2.40
2022-03-05T11:22:00,pth,6.00
2022-03-05T11:24:00,pth,6.00
2022-03-05T11:26:00,pth,4.80
2022-03-05T11:28:00,pth,4.80
2022-03-05T11:30:00,pth,6.00
2022-03-05T11:32:00,pth,4.80
2022-03-05T11:34:00,pth,4.80
2022-03-05T11:35:00,pth,1.20
2022-03-05T11:36:00,pth,2.40
2022-03-05T11:38:00,pth,3.60
2022-03-05T11:40:00,pth,4.80
2022-03-05T11:42:00,pth,4.80
2022-03-05T11:44:00,pth,4.80
2022-03-05T11:45:00,pth,2.40
2022-03-05T11:46:00,pth,2.40
2022-03-05T11:47:00,pth,1.20
2022-03-05T11:49:00,pth,4.80
2022-03-05T11:50:00,pth,1.20
2022-03-05T11:52:00,pth,4.80
2022-03-05T11:53:00,pth,1.20
2022-03-05T11:55:00,pth,4.80
2022-03-05T11:56:00,pth,2.40
2022-03-05T11:58:00,pth,3.60
2022-03-05T11:59:00,pth,2.40
2022-03-05T12:01:00,pth,3.60
2022-03-05T12:03:00,pth,9.60
2022-03-05T12:05:00,pth,14.40
2022-03-05T12:06:00,pth,8.40
2022-03-05T12:08:00,pth,14.40
2022-03-05T12:10:00,pth,14.40
2022-03-05T12:11:00,pth,8.40
2022-03-05T12:12:00,pth,7.20
2022-03-05T12:14:00,pth,15.60
2022-03-05T12:15:00,pth,7.20
2022-03-05T12:17:00,pth,14.40
2022-03-05T12:18:00,pth,8.40
2022-03-05T12:20:00,pth,14.40
2022-03-05T12:22:00,pth,15.60
2022-03-05T12:24:00,pth,14.40
2022-03-05T12:25:00,pth,2.40
2022-03-05T12:27:00,pth,14.40
2022-03-05T12:28:00,pth,6.00
2022-03-05T12:30:00,pth,3.60
2022-03-05T12:31:00,pth,2.40
2022-03-05T12:33:00,pth,4.80
2022-03-05T12:35:00,pth,3.60
2022-03-05T12:37:00,pth,4.80
2022-03-05T12:39:00,pth,3.60
2022-03-05T12:41:00,pth,3.60
2022-03-05T12:43:00,pth,4.80
2022-03-05T12:44:00,pth,2.40
2022-03-05T12:45:00,pth,2.40
2022-03-05T12:47:00,pth,3.60
2022-03-05T12:49:00,pth,4.80
2022-03-05T12:51:00,pth,4.80
2022-03-05T12:53:00,pth,3.60
2022-03-05T12:55:00,pth,4.80
2022-03-05T12:57:00,pth,3.60
2022-03-05T12:58:00,pth,2.40
2022-03-05T13:00:00,pth,3.60
2022-03-05T13:02:00,pth,4.80
2022-03-05T13:04:00,pth,4.80
2022-03-05T13:05:00,pth,1.20
2022-03-05T13:06:00,pth,2.40
2022-03-05T13:08:00,pth,3.60
2022-03-05T13:10:00,pth,4.80
2022-03-05T13:12:00,pth,3.60
2022-03-05T13:14:00,pth,3.60
2022-03-05T13:15:00,pth,2.40
2022-03-05T13:17:00,pth,3.60
2022-03-05T13:19:00,pth,3.60
2022-03-05T13:21:00,pth,3.60
2022-03-05T13:23:00,pth,3.60
2022-03-05T13:25:00,pth,3.60
2022-03-05T13:27:00,pth,3.60
2022-03-05T13:29:00,pth,3.60
2022-03-05T13:31:00,pth,4.80
2022-03-05T13:32:00,pth,1.20
2022-03-05T13:34:00,pth,3.60
2022-03-05T13:36:00,pth,3.60
2022-03-05T13:38:00,pth,4.80
2022-03-05T13:40:00,pth,3.60
2022-03-05T13:42:00,pth,3.60
2022-03-05T13:44:00,pth,3.60
2022-03-05T13:46:00,pth,2.40
2022-03-05T13:47:00,pth,2.40
2022-03-05T13:48:00,pth,1.20
2022-03-05T13:50:00,pth,3.60
2022-03-05T13:52:00,pth,3.60
2022-03-05T13:54:00,pth,3.60
2022-03-05T13:56:00,pth,3.60
2022-03-05T13:58:00,pth,3.60
2022-03-05T14:00:00,pth,3.60
2022-03-05T14:02:00,pth,3.60
2022-03-05T14:04:00,pth,4.80
2022-03-05T14:06:00,pth,3.60
2022-03-05T14:08:00,pth,3.60
2022-03-05T14:10:00,pth,3.60
2022-03-05T14:12:00,pth,3.60
2022-03-05T14:14:00,pth,3.60
2022-03-05T14:16:00,pth,3.60
2022-03-05T14:18:00,pth,3.60
2022-03-05T14:19:00,pth,1.20
2022-03-05T14:21:00,pth,3.60
2022-03-05T14:23:00,pth,3.60
2022-03-05T14:25:00,pth,3.60
2022-03-05T14:26:00,pth,1.20
2022-03-05T14:27:00,pth,2.40
2022-03-05T14:29:00,pth,3.60
2022-03-05T14:31:00,pth,3.60
2022-03-05T14:32:00,pth,1.20
2022-03-05T14:33:00,pth,2.40
2022-03-05T14:35:00,pth,3.60
2022-03-05T14:36:00,pth,1.20
2022-03-05T14:38:00,pth,3.60
2022-03-05T14:40:00,pth,3.60
2022-03-05T14:42:00,pth,3.60
2022-03-05T14:43:00,pth,1.20
2022-03-05T14:45:00,pth,3.60
2022-03-05T14:47:00,pth,3.60
2022-03-05T14:49:00,pth,3.60
2022-03-05T14:51:00,pth,3.60
2022-03-05T14:53:00,pth,3.60
2022-03-05T14:54:00,pth,1.20
2022-03-05T14:56:00,pth,4.80
2022-03-05T14:57:00,pth,1.20
2022-03-05T14:58:00,pth,2.40
2022-03-05T15:00:00,pth,3.60
2022-03-05T15:02:00,pth,3.60
2022-03-05T15:03:00,pth,2.40
2022-03-05T15:05:00,pth,3.60
2022-03-05T15:07:00,pth,3.60
2022-03-05T15:09:00,pth,3.60
2022-03-05T15:11:00,pth,4.80
2022-03-05T15:12:00,pth,1.20
2022-03-05T15:13:00,pth,2.40
2022-03-05T15:15:00,pth,2.40
2022-03-05T15:17:00,pth,3.60
2022-03-05T15:19:00,pth,4.80
2022-03-05T15:20:00,pth,1.20
2022-03-05T15:22:00,pth,4.80
2022-03-05T15:23:00,pth,1.20
2022-03-05T15:25:00,pth,4.80
2022-03-05T15:26:00,pth,1.20
2022-03-05T15:28:00,pth,4.80
2022-03-05T15:30:00,pth,2.40
2022-03-05T15:31:00,pth,2.40
2022-03-05T15:33:00,pth,3.60
2022-03-05T15:35:00,pth,3.60
2022-03-05T15:36:00,pth,2.40
2022-03-05T15:38:00,pth,3.60
2022-03-05T15:39:00,pth,2.40
2022-03-05T15:41:00,pth,3.60
2022-03-05T15:42:00,pth,2.40
2022-03-05T15:44:00,pth,3.60
2022-03-05T15:45:00,pth,2.40
2022-03-05T15:46:00,pth,1.20
2022-03-05T15:48:00,pth,4.80
2022-03-05T15:50:00,pth,4.80
2022-03-05T15:51:00,pth,2.40
2022-03-05T15:53:00,pth,3.60
2022-03-05T15:55:00,pth,4.80
2022-03-05T15:57:00,pth,4.80
2022-03-05T15:58:00,pth,1.20
2022-03-05T16:00:00,pth,4.80
2022-03-05T16:01:00,pth,1.20
2022-03-05T16:03:00,pth,3.60
2022-03-05T16:05:00,pth,3.60
2022-03-05T16:07:00,pth,4.80
2022-03-05T16:08:00,pth,1.20
2022-03-05T16:10:00,pth,3.60
2022-03-05T16:12:00,pth,3.60
2022-03-05T16:14:00,pth,3.60
2022-03-05T16:16:00,pth,3.60
2022-03-05T16:17:00,pth,1.20
2022-03-05T16:19:00,pth,6.00
2022-03-05T16:21:00,pth,3.60
2022-03-05T16:22:00,pth,2.40
2022-03-05T16:24:00,pth,3.60
2022-03-05T16:26:00,pth,3.60
2022-03-05T16:28:00,pth,2.40
2022-03-05T16:30:00,pth,3.60
2022-03-05T16:32:00,pth,3.60
2022-03-05T16:33:00,pth,1.20
2022-03-05T16:35:00,pth,3.60
2022-03-05T16:37:00,pth,3.60
2022-03-05T16:38:00,pth,2.40
2022-03-05T16:40:00,pth,2.40
2022-03-05T16:41:00,pth,2.40
2022-03-05T16:43:00,pth,3.60
2022-03-05T16:44:00,pth,1.20
2022-03-05T16:46:00,pth,3.60
2022-03-05T16:47:00,pth,2.40
2022-03-05T16:49:00,pth,4.80
2022-03-05T16:51:00,pth,3.60
2022-03-05T16:52:00,pth,2.40
2022-03-05T16:54:00,pth,3.60
2022-03-05T16:56:00,pth,3.60
2022-03-05T16:57:00,pth,2.40
2022-03-05T16:59:00,pth,3.60
2022-03-05T17:01:00,pth,3.60
2022-03-05T17:03:00,pth,3.60
2022-03-05T17:05:00,pth,3.60
2022-03-05T17:07:00,pth,3.60
2022-03-05T17:08:00,pth,2.40
2022-03-05T17:10:00,pth,3.60
2022-03-05T17:12:00,pth,3.60
2022-03-05T17:14:00,pth,4.80
2022-03-05T17:16:00,pth,3.60
2022-03-05T17:17:00,pth,1.20
2022-03-05T17:19:00,pth,3.60
2022-03-05T17:20:00,pth,2.40
2022-03-05T17:22:00,pth,3.60
2022-03-05T17:24:00,pth,3.60
2022-03-05T17:25:00,pth,2.40
2022-03-05T17:27:00,pth,3.60
2022-03-05T17:28:00,pth,1.20
2022-03-05T17:30:00,pth,3.60
2022-03-05T17:32:00,pth,3.60
2022-03-05T17:34:00,pth,4.80
2022-03-05T17:36:00,pth,2.40
2022-03-05T17:37:00,pth,2.40
2022-03-05T17:39:00,pth,3.60
2022-03-05T17:41:00,pth,3.60
2022-03-05T17:43:00,pth,3.60
2022-03-05T17:45:00,pth,3.60
2022-03-05T17:47:00,pth,3.60
2022-03-05T17:49:00,pth,3.60
2022-03-05T17:51:00,pth,2.40
2022-03-05T17:53:00,pth,4.80
2022-03-05T17:55:00,pth,4.80
2022-03-05T17:57:00,pth,3.60
2022-03-05T17:58:00,pth,2.40
2022-03-05T18:00:00,pth,4.80
2022-03-05T18:02:00,pth,3.60
2022-03-05T18:04:00,pth,4.80
2022-03-05T18:05:00,pth,2.40
2022-03-05T18:07:00,pth,3.60
2022-03-05T18:09:00,pth,3.60
2022-03-05T18:10:00,pth,2.40
2022-03-05T18:12:00,pth,4.80
2022-03-05T18:14:00,pth,4.80
2022-03-05T18:16:00,pth,3.60
2022-03-05T18:17:00,pth,2.40
2022-03-05T18:19:00,pth,4.80
2022-03-05T18:20:00,pth,2.40
2022-03-05T18:21:00,pth,1.20
2022-03-05T18:22:00,pth,2.40
2022-03-05T18:24:00,pth,4.80
2022-03-05T18:26:00,pth,4.80
2022-03-05T18:28:00,pth,4.80
2022-03-05T18:30:00,pth,3.60
2022-03-05T18:32:00,pth,4.80
2022-03-05T18:33:00,pth,2.40
2022-03-05T18:35:00,pth,4.80
2022-03-05T18:37:00,pth,3.60
2022-03-05T18:38:00,pth,2.40
2022-03-05T18:40:00,pth,3.60
2022-03-05T18:42:00,pth,4.80
2022-03-05T18:44:00,pth,4.80
2022-03-05T18:46:00,pth,3.60
2022-03-05T18:48:00,pth,4.80
2022-03-05T18:50:00,pth,4.80
2022-03-05T18:51:00,pth,2.40
2022-03-05T18:53:00,pth,3.60
2022-03-05T18:55:00,pth,3.60
2022-03-05T18:57:00,pth,4.80
2022-03-05T18:59:00,pth,4.80
2022-03-05T19:01:00,pth,4.80
2022-03-05T19:03:00,pth,4.80
2022-03-05T19:05:00,pth,4.80
2022-03-05T19:06:00,pth,2.40
2022-03-05T19:08:00,pth,3.60
2022-03-05T19:09:00,pth,2.40
2022-03-05T19:11:00,pth,3.60
2022-03-05T19:13:00,pth,3.60
2022-03-05T19:15:00,pth,4.80
2022-03-05T19:17:00,pth,3.60
2022-03-05T19:19:00,pth,4.80
2022-03-05T19:21:00,pth,4.80
2022-03-05T19:23:00,pth,4.80
2022-03-05T19:25:00,pth,3.60
2022-03-05T19:27:00,pth,4.80
2022-03-05T19:29:00,pth,4.80
2022-03-05T19:31:00,pth,4.80
2022-03-05T19:33:00,pth,3.60
2022-03-05T19:35:00,pth,4.80
2022-03-05T19:37:00,pth,4.80
2022-03-05T19:39:00,pth,4.80
2022-03-05T19:41:00,pth,4.80
2022-03-05T19:43:00,pth,3.60
2022-03-05T19:44:00,pth,2.40
2022-03-05T19:46:00,pth,6.00
2022-03-05T19:48:00,pth,6.00
2022-03-05T19:50:00,pth,6.00
2022-03-05T19:52:00,pth,8.40
2022-03-05T19:54:00,pth,7.20
2022-03-05T19:56:00,pth,6.00
2022-03-05T19:58:00,pth,4.80
2022-03-05T20:00:00,pth,4.80
2022-03-05T20:02:00,pth,8.40
2022-03-05T20:03:00,pth,3.60
2022-03-05T20:05:00,pth,8.40
2022-03-05T20:07:00,pth,9.60
2022-03-05T20:09:00,pth,8.40
2022-03-05T20:11:00,pth,7.20
2022-03-05T20:12:00,pth,2.40
2022-03-05T20:14:00,pth,6.00
2022-03-05T20:16:00,pth,6.00
2022-03-05T20:17:00,pth,2.40
2022-03-05T20:18:00,pth,3.60
2022-03-05T20:20:00,pth,6.00
2022-03-05T20:22:00,pth,6.00
2022-03-05T20:24:00,pth,4.80
2022-03-05T20:25:00,pth,3.60
2022-03-05T20:27:00,pth,6.00
2022-03-05T20:29:00,pth,4.80
2022-03-05T20:31:00,pth,6.00
2022-03-05T20:33:00,pth,4.80
2022-03-05T20:35:00,pth,6.00
2022-03-05T20:36:00,pth,2.40
2022-03-05T20:38:00,pth,4.80
2022-03-05T20:40:00,pth,4.80
2022-03-05T20:42:00,pth,6.00
2022-03-05T20:44:00,pth,4.80
2022-03-05T20:46:00,pth,6.00
2022-03-05T20:48:00,pth,4.80
2022-03-05T20:50:00,pth,4.80
2022-03-05T20:52:00,pth,6.00
2022-03-05T20:53:00,pth,2.40
2022-03-05T20:55:00,pth,6.00
2022-03-05T20:57:00,pth,6.00
2022-03-05T20:59:00,pth,6.00
2022-03-05T21:01:00,pth,4.80
2022-03-05T21:03:00,pth,6.00
2022-03-05T21:04:00,pth,2.40
2022-03-05T21:06:00,pth,4.80
2022-03-05T21:07:00,pth,2.40
2022-03-05T21:09:00,pth,4.80
2022-03-05T21:11:00,pth,4.80
2022-03-05T21:13:00,pth,6.00
2022-03-05T21:15:00,pth,4.80
2022-03-05T21:16:00,pth,2.40
2022-03-05T21:18:00,pth,3.60
2022-03-05T21:19:00,pth,2.40
2022-03-05T21:21:00,pth,4.80
2022-03-05T21:23:00,pth,14.40
2022-03-05T21:24:00,pth,8.40
2022-03-05T21:26:00,pth,15.60
2022-03-05T21:27:00,pth,8.40
2022-03-05T21:29:00,pth,16.80
2022-03-05T21:31:00,pth,15.60
2022-03-05T21:32:00,pth,8.40
2022-03-05T21:34:00,pth,15.60
2022-03-05T21:35:00,pth,8.40
2022-03-05T21:37:00,pth,15.60
2022-03-05T21:39:00,pth,15.60
2022-03-05T21:40:00,pth,8.40
2022-03-05T21:42:00,pth,15.60
2022-03-05T21:43:00,pth,8.40
2022-03-05T21:45:00,pth,15.60
2022-03-05T21:46:00,pth,7.20
2022-03-05T21:48:00,pth,15.60
2022-03-05T21:50:00,pth,15.60
2022-03-05T21:52:00,pth,15.60
2022-03-05T21:54:00,pth,15.60
2022-03-05T21:56:00,pth,16.80
2022-03-05T21:58:00,pth,15.60
2022-03-05T22:00:00,pth,16.80
2022-03-05T22:01:00,pth,7.20
2022-03-05T22:03:00,pth,16.80
2022-03-05T22:05:00,pth,15.60
2022-03-05T22:06:00,pth,8.40
2022-03-05T22:07:00,pth,8.40
2022-03-05T22:08:00,pth,15.60
2022-03-05T22:10:00,pth,16.80
2022-03-05T22:12:00,pth,15.60
2022-03-05T22:14:00,pth,16.80
2022-03-05T22:16:00,pth,15.60
2022-03-05T22:18:00,pth,10.80
2022-03-05T22:20:00,pth,6.00
2022-03-05T22:22:00,pth,4.80
2022-03-05T22:24:00,pth,4.80
2022-03-05T22:26:00,pth,6.00
2022-03-05T22:28:00,pth,4.80
2022-03-05T22:30:00,pth,4.80
2022-03-05T22:32:00,pth,6.00
2022-03-05T22:34:00,pth,4.80
2022-03-05T22:36:00,pth,4.80
2022-03-05T22:38:00,pth,4.80
2022-03-05T22:40:00,pth,3.60
2022-03-05T22:42:00,pth,4.80
2022-03-05T22:44:00,pth,4.80
2022-03-05T22:45:00,pth,2.40
2022-03-05T22:47:00,pth,6.00
2022-03-05T22:49:00,pth,4.80
2022-03-05T22:51:00,pth,4.80
2022-03-05T22:53:00,pth,4.80
2022-03-05T22:54:00,pth,2.40
2022-03-05T22:55:00,pth,2.40
2022-03-05T22:57:00,pth,4.80
2022-03-05T22:58:00,pth,3.60
2022-03-05T23:00:00,pth,6.00
2022-03-05T23:01:00,pth,2.40
2022-03-05T23:03:00,pth,6.00
2022-03-05T23:04:00,pth,3.60
2022-03-05T23:05:00,pth,3.60
2022-03-05T23:07:00,pth,4.80
2022-03-05T23:08:00,pth,2.40
2022-03-05T23:10:00,pth,6.00
2022-03-05T23:12:00,pth,6.00
2022-03-05T23:13:00,pth,2.40
2022-03-05T23:14:00,pth,2.40
2022-03-05T23:16:00,pth,6.00
2022-03-05T23:18:00,pth,4.80
2022-03-05T23:20:00,pth,4.80
2022-03-05T23:22:00,pth,6.00
2022-03-05T23:24:00,pth,6.00
2022-03-05T23:26:00,pth,4.80
2022-03-05T23:28:00,pth,6.00
2022-03-05T23:29:00,pth,2.40
2022-03-05T23:31:00,pth,4.80
2022-03-05T23:32:00,pth,3.60
2022-03-05T23:34:00,pth,4.80
2022-03-05T23:36:00,pth,4.80
2022-03-05T23:38:00,pth,4.80
2022-03-05T23:39:00,pth,2.40
2022-03-05T23:41:00,pth,4.80
2022-03-05T23:43:00,pth,4.80
2022-03-05T23:44:00,pth,2.40